Location: Berlin
(52.5170°N, 13.4000°E)
Time: 06:20:55
(UTC+02:00)

ISS - Pass Details

Date: 15 July 2018
Orbit: 402 x 408 km, 51.6° (Epoch: 23 July)

Event Time Altitude Azimuth Distance (km) Brightness Sun altitude
Exits shadow 01:49:35 39° 189° (S) 629 -3.4 -15.5°
Maximum altitude 01:50:08 43° 159° (SSE) 583 -3.5 -15.5°
Drops below altitude 10° 01:53:17 10° 86° (E) 1,473 -0.8 -15.4°
Sets 01:55:26 0° 80° (E) 2,337 0.3 -15.3°
